Elkins, WV

1:37 PM EST on February 10, 2016 (GMT -0500)
Elkins-Randolph County

Weather History for KEKN - May, 2012

Change the Weather History Date:

Monday, May 28, 2012

  Actual Average Record
Temperature  
Mean Temperature 74 °F 61 °F  
Max Temperature 88 °F 73 °F 88 °F (1914)
Min Temperature 59 °F 49 °F 31 °F (1994)
Degree Days  
Heating Degree Days 0 5  
Month to date heating degree days 81 222  
Since 1 July heating degree days 4707 5785  
Cooling Degree Days 9 1  
Month to date cooling degree days 50 15  
Year to date cooling degree days 50 18  
Growing Degree Days 24 (Base 50)    
Moisture  
Dew Point 63 °F    
Average Humidity 70    
Maximum Humidity 100    
Minimum Humidity 40    
Precipitation  
Precipitation 0.00 in 0.16 in 0.99 in (2004)
Month to date precipitation 5.86 4.62  
Year to date precipitation 17.59 18.71  
Snow  
Snow 0.00 in - - ()
Month to date snowfall 0.0  
Since 1 September snowfall 30.6  
Snow Depth 0.00 in    
Sea Level Pressure  
Sea Level Pressure 30.07 in    
Wind  
Wind Speed 2 mph (SSW)    
Max Wind Speed 9 mph    
Max Gust Speed 13 mph    
Visibility 6 miles    
Events Fog    
T = Trace of Precipitation, MM = Missing Value Source: NWS Daily Summary

Daily Weather History Graph

Daily Weather History Graph

Search for Another Location

Airport or City:

Trip Planner

Search our weather history database for the weather conditions in past years. The results will help you decide how hot, cold, wet, or windy it might be!

Date:

Astronomy

May. 28, 2012 Rise Set
Actual Time 5:57 AM EDT 8:36 PM EDT
Civil Twilight 5:26 AM EDT 9:07 PM EDT
Nautical Twilight 4:47 AM EDT 9:46 PM EDT
Astronomical Twilight 4:04 AM EDT 10:30 PM EDT
Moon 1:03 PM EDT (5/28) 1:15 AM EDT (5/28)
Length of Visible Light 15h 41m
Length of Day
14h 38m
Waxing Crescent, 48% of the Moon is Illuminated
May 28
Waxing Crescent
May 28
First Quarter
Jun 4
Full
Jun 11
Last Quarter
Jun 19
New

Hourly Weather History & Observations

Time (EDT) Temp. Heat Index Dew Point Humidity Pressure Visibility Wind Dir Wind Speed Gust Speed Precip Events Conditions
12:18 AM 66.2 °F - 64.4 °F 94% 30.19 in 2.0 mi Calm Calm - N/A   Overcast
12:27 AM 66.2 °F - 64.4 °F 94% 30.18 in 1.8 mi Calm Calm - N/A   Overcast
12:37 AM 66.2 °F - 64.4 °F 94% 30.15 in 0.2 mi South 5.8 mph - N/A Fog Fog
12:51 AM 66.0 °F - 64.9 °F 96% 30.11 in 0.5 mi Calm Calm - N/A Fog Fog
1:18 AM 66.2 °F - 64.4 °F 94% 30.12 in 2.0 mi South 5.8 mph - N/A   Mostly Cloudy
1:25 AM 66.2 °F - 64.4 °F 94% 30.13 in 7.0 mi South 5.8 mph - N/A   Scattered Clouds
1:51 AM 64.9 °F - 64.0 °F 97% 30.09 in 4.0 mi Calm Calm - N/A   Clear
2:18 AM 62.6 °F - 62.6 °F 100% 30.12 in 1.8 mi Calm Calm - N/A   Clear
2:27 AM 62.6 °F - 62.6 °F 100% 30.11 in 2.0 mi Calm Calm - N/A   Clear
2:43 AM 62.6 °F - 60.8 °F 94% 30.11 in 7.0 mi Calm Calm - N/A   Clear
2:51 AM 63.0 °F - 61.0 °F 93% 30.07 in 8.0 mi Calm Calm - N/A   Clear
3:51 AM 64.0 °F - 61.0 °F 90% 30.05 in 9.0 mi SSE 3.5 mph - N/A   Clear
4:51 AM 64.0 °F - 61.0 °F 90% 30.05 in 10.0 mi SE 4.6 mph - N/A   Clear
5:51 AM 60.1 °F - 59.0 °F 96% 30.07 in 2.5 mi Calm Calm - N/A   Clear
6:01 AM 60.8 °F - 57.2 °F 88% 30.08 in 5.0 mi Calm Calm - N/A   Clear
6:24 AM 60.8 °F - 57.2 °F 88% 30.09 in 1.8 mi Calm Calm - N/A   Clear
6:30 AM 59.0 °F - 57.2 °F 94% 30.09 in 0.5 mi Calm Calm - N/A Fog Fog
6:39 AM 60.8 °F - 59.0 °F 94% 30.10 in 0.2 mi Calm Calm - N/A Fog Fog
6:47 AM 60.8 °F - 60.8 °F 100% 30.10 in 1.0 mi Calm Calm - N/A   Clear
6:51 AM 61.0 °F - 60.1 °F 97% 30.09 in 1.5 mi Calm Calm - N/A   Clear
6:59 AM 60.8 °F - 60.8 °F 100% 30.11 in 3.0 mi Calm Calm - N/A   Clear
7:51 AM 66.0 °F - 63.0 °F 90% 30.10 in 10.0 mi Calm Calm - N/A   Clear
8:51 AM 72.0 °F - 64.0 °F 76% 30.12 in 10.0 mi Calm Calm - N/A   Clear
9:51 AM 75.0 °F - 64.9 °F 71% 30.12 in 10.0 mi Calm Calm - N/A   Clear
10:51 AM 78.1 °F - 64.0 °F 62% 30.10 in 10.0 mi South 4.6 mph - N/A   Clear
11:51 AM 81.0 °F 82.2 °F 63.0 °F 54% 30.08 in 10.0 mi Calm Calm - N/A   Clear
12:51 PM 82.9 °F 84.0 °F 63.0 °F 51% 30.06 in 10.0 mi Calm Calm - N/A   Clear
1:51 PM 84.0 °F 84.4 °F 61.0 °F 46% 30.04 in 10.0 mi Calm Calm - N/A   Partly Cloudy
2:51 PM 84.9 °F 85.4 °F 62.1 °F 46% 30.02 in 10.0 mi Calm Calm - N/A   Clear
3:51 PM 87.1 °F 86.7 °F 60.1 °F 40% 29.99 in 10.0 mi NNW 3.5 mph - N/A   Clear
4:51 PM 86.0 °F 85.7 °F 60.1 °F 41% 29.97 in 10.0 mi Calm Calm - N/A   Partly Cloudy
5:51 PM 84.9 °F 85.9 °F 63.0 °F 48% 29.97 in 10.0 mi WSW 4.6 mph - N/A   Mostly Cloudy
6:51 PM 82.0 °F 83.8 °F 64.9 °F 56% 29.99 in 10.0 mi North 10.4 mph - N/A   Scattered Clouds
7:51 PM 77.0 °F - 66.9 °F 71% 29.99 in 10.0 mi WNW 4.6 mph - N/A   Clear
8:51 PM 72.0 °F - 66.9 °F 84% 29.98 in 10.0 mi Calm Calm - N/A   Partly Cloudy
9:51 PM 70.0 °F - 66.9 °F 90% 29.99 in 10.0 mi Calm Calm - N/A   Clear
10:51 PM 68.0 °F - 66.0 °F 93% 30.00 in 9.0 mi Calm Calm - N/A   Clear
11:51 PM 64.9 °F - 64.0 °F 97% 29.99 in 6.0 mi Calm Calm - N/A   Clear